Temperature
15 16 16 16 17 18 19 22 24 25 25 25 25 25 24 23 22 19 18 18 18 18 18 18 18 17 17 17 17 17 17 17 17 16 16 16 16 16 16 16 16 16 16 16 16 16 16 16 16
15 15 15 17 17 18 20 22 24 24 24 24 24 24 23 21 19 18 18 17 17 17 17 17 17 17 17 17 17 17 17 17 16 16 16 16 16 16 16 16 16 16 16 16 16 16 16 16 16
14 15 16 17 18 19 21 23 23 24 23 23 23 23 22 20 19 18 18 17 17 17 17 17 17 17 17 17 17 17 16 16 16 16 16 16 16 16 16 15 15 15 15 15 15 15 15 15 15
14 15 16 17 18 20 22 23 23 23 23 23 23 22 20 19 18 18 17 17 16 16 17 17 17 17 17 17 16 16 16 16 16 16 16 16 16 16 15 15 15 15 15 15 15 15 15 15 15
14 16 16 17 18 21 23 23 23 22 22 23 22 21 18 18 18 17 17 16 16 16 16 16 16 16 16 16 16 16 16 16 16 16 16 16 15 15 15 15 15 15 15 15 15 15 15 15 15
14 16 16 17 19 21 22 23 23 22 23 23 22 20 17 17 17 17 16 16 16 16 16 16 16 16 16 16 16 16 16 16 16 15 15 15 15 15 15 15 15 15 15 15 15 15 14 14 14
15 15 16 18 19 20 22 23 22 22 22 23 22 20 17 17 17 16 16 16 15 15 16 16 16 16 16 16 16 16 16 15 15 15 15 15 15 15 15 15 15 15 15 14 14 14 14 14 14
14 16 16 17 19 20 22 22 22 22 22 22 22 20 17 16 16 16 16 15 15 15 15 15 15 15 15 15 15 15 15 15 15 15 15 15 15 15 15 15 15 14 14 14 14 14 14 14 14
14 14 15 17 19 20 21 21 21 21 21 21 20 19 18 17 16 15 15 15 15 15 15 15 15 15 15 15 15 15 15 15 15 15 15 15 15 15 14 14 14 14 14 14 14 14 14 14 14
14 14 16 19 19 20 20 20 20 20 19 19 18 17 17 16 15 15 15 15 15 14 14 14 14 15 15 15 15 15 15 15 14 14 14 14 14 14 14 14 14 14 14 14 14 14 13 13 13
14 14 17 18 19 19 19 19 19 19 18 19 18 16 16 16 15 15 15 15 15 14 14 14 14 14 14 14 14 14 14 14 14 14 14 14 14 14 14 14 14 14 14 13 13 13 13 13 13
14 15 17 18 18 18 18 19 19 19 19 19 18 17 16 15 15 15 15 15 15 14 14 14 14 14 14 14 14 14 14 14 14 14 14 14 14 14 14 14 13 13 13 13 13 13 13 13 13
14 15 16 17 17 17 17 18 18 18 18 18 17 16 15 15 15 15 15 15 14 14 14 14 14 14 14 14 14 14 14 14 14 14 14 14 14 14 13 13 13 13 13 13 13 12 12 12 12
14 15 16 16 16 16 16 17 17 17 17 17 16 16 15 15 15 15 15 14 14 14 14 14 14 14 14 14 14 14 14 14 14 13 13 13 13 13 13 13 13 13 13 12 12 12 12 12 12
15 14 14 15 16 16 16 15 16 17 16 16 16 15 15 15 15 14 14 14 14 14 14 14 14 13 13 13 13 13 13 13 13 13 13 13 13 13 13 13 13 12 12 12 12 12 12 12 12
14 13 13 14 15 16 15 14 16 16 16 15 15 15 15 15 14 14 14 14 14 14 14 14 13 13 13 13 13 13 13 13 13 13 13 13 13 13 13 13 12 12 12 12 12 12 12 12 11
12 12 12 14 15 15 14 14 15 16 16 15 15 15 15 14 14 14 14 14 13 13 13 13 13 13 13 13 13 13 13 13 13 13 13 13 13 13 13 12 12 12 12 12 12 11 11 11 11
11 12 13 13 15 15 14 14 14 15 16 15 15 15 15 14 14 14 14 13 13 13 13 13 13 13 13 12 12 12 12 12 12 12 12 12 12 12 12 12 12 12 12 12 11 11 11 11 10
13 13 13 14 15 14 13 13 14 14 15 15 15 15 14 14 14 14 13 13 13 13 13 13 12 12 12 12 12 12 12 12 12 12 12 12 12 12 12 12 12 11 11 11 11 11 11 10 10
12 12 13 14 14 14 13 13 13 14 14 15 15 15 14 14 13 13 13 13 12 12 12 12 12 12 12 12 12 12 12 12 12 12 12 12 12 12 12 11 11 11 11 11 10 10 10 10 9
11 12 12 13 13 13 12 12 13 13 14 14 15 15 14 13 13 13 12 12 12 12 12 12 12 12 12 12 12 11 11 11 11 11 11 11 11 11 11 11 11 11 11 10 10 10 9 9 9
10 12 12 12 11 10 12 10 12 13 13 13 14 14 14 13 12 12 12 12 12 12 12 12 12 12 12 11 11 12 12 11 11 11 11 11 11 11 11 11 10 10 10 10 9 9 9 8 8
10 12 12 12 11 10 11 10 11 13 12 13 13 13 13 13 12 12 11 11 11 11 11 11 11 11 11 11 11 11 11 11 11 11 11 11 11 10 10 10 10 10 10 9 9 9 8 8 8
10 10 11 11 10 9 10 10 11 12 13 13 13 13 12 12 12 12 11 11 11 11 11 11 11 11 11 11 11 11 11 11 11 11 11 10 10 10 10 10 10 9 9 9 8 8 8 8 7
9 8 8 8 8 8 11 11 11 13 13 13 12 12 12 11 11 11 11 10 10 10 10 10 10 10 10 10 10 10 10 10 10 11 10 10 10 10 10 9 9 9 9 8 8 8 7 7 7
8 8 8 8 8 9 11 10 11 11 12 12 12 11 11 11 10 10 10 10 10 10 10 10 10 10 10 10 10 9 9 10 10 10 10 10 10 10 9 9 9 9 8 8 8 7 7 6 6
7 8 9 9 9 9 10 10 10 10 10 11 11 10 10 10 9 9 9 9 9 9 9 9 10 10 9 9 9 9 9 9 9 9 9 9 9 9 9 9 8 8 8 7 7 7 6 6 5
8 8 7 7 8 9 10 10 10 9 9 9 9 9 9 9 8 8 8 8 8 8 9 9 9 9 9 9 9 9 8 9 9 9 9 9 9 9 8 8 8 8 7 7 7 6 6 5 5
7 7 7 7 8 8 9 9 9 9 9 9 8 8 8 8 7 7 7 7 8 8 8 8 8 8 8 8 8 8 8 8 8 8 8 8 8 8 8 8 7 7 7 6 6 6 5 5 5
7 7 7 6 7 8 8 8 8 8 8 8 8 7 7 7 7 6 6 6 6 7 7 7 7 8 8 8 8 8 8 8 8 8 7 7 8 7 7 7 7 6 6 6 6 5 5 4 4
Wind_Speed
9 11 8 3 4 6 10 10 7 1 0 2 5 4 4 4 4 9 5 10 16 17 19 18 18 17 17 16 16 16 16 16 16 15 15 15 15 15 14 15 15 15 16 15 15 15 15 15 14
9 8 5 4 5 8 9 12 8 3 4 5 4 2 3 5 8 9 7 12 15 17 18 17 18 18 17 17 17 16 16 15 15 15 15 15 15 15 15 15 15 15 15 15 15 15 15 14 14
9 7 4 5 7 9 8 6 5 5 7 3 2 1 2 5 7 6 9 13 15 16 17 18 19 18 17 17 17 16 16 15 15 14 14 14 14 14 15 15 15 15 15 15 15 14 14 14 13
5 4 5 7 13 12 9 1 5 6 5 3 3 3 5 6 5 8 11 14 15 15 18 19 18 18 18 17 17 16 16 15 15 15 15 14 14 14 14 15 15 15 15 14 14 14 13 12 12
4 4 6 9 14 12 8 1 4 5 6 6 5 3 6 5 10 12 11 13 15 15 18 18 18 18 18 17 17 16 16 16 15 15 15 15 15 15 15 15 15 15 14 14 13 13 12 12 11
4 5 7 11 14 13 8 3 4 4 5 7 6 3 6 5 9 10 10 12 13 15 17 18 18 18 18 18 17 16 16 16 16 16 16 16 15 15 14 14 14 14 13 13 12 12 12 11 11
5 5 10 11 11 11 9 5 5 5 4 5 5 4 7 7 9 9 10 11 13 15 15 15 16 17 18 17 17 17 16 17 16 16 16 15 15 14 14 13 13 13 12 12 11 11 10 10 9
5 4 9 12 12 9 6 5 5 4 4 2 2 4 7 9 10 9 10 10 11 12 12 12 14 15 15 16 17 17 17 16 16 16 15 15 14 14 13 13 13 12 11 11 10 9 9 9 8
5 6 9 11 9 5 3 4 3 1 0 0 3 5 11 15 12 11 10 9 10 11 11 11 11 13 14 15 16 16 16 16 15 14 14 12 12 12 12 12 12 11 10 9 8 7 7 6 6
6 8 10 7 5 4 3 3 4 4 4 3 6 11 15 13 12 12 12 11 11 11 10 9 10 11 12 13 13 12 12 12 11 11 10 10 10 11 11 11 11 10 9 7 6 5 4 4 4
7 8 8 7 4 4 2 3 4 6 6 6 9 13 13 12 11 11 11 11 10 10 10 9 9 10 9 9 10 9 9 9 10 10 10 10 10 10 9 8 8 7 6 5 4 3 4 5 5
9 10 10 6 2 2 3 3 4 6 3 3 9 14 13 12 12 12 11 10 10 10 10 8 9 8 8 9 8 8 8 7 8 9 10 9 6 6 6 6 5 5 4 3 4 4 4 5 5
14 10 9 5 2 3 5 5 5 5 1 3 9 12 12 11 10 9 9 9 11 10 10 9 8 8 8 7 7 8 7 7 9 9 9 9 6 5 5 5 5 5 5 4 4 4 5 5 6
9 10 10 8 6 5 6 6 6 5 3 5 8 10 10 10 9 9 9 10 11 11 10 9 9 8 8 6 6 7 8 9 9 8 9 9 8 6 5 5 5 5 5 5 4 5 4 4 4
8 9 10 9 8 6 5 8 10 6 5 6 7 9 9 9 9 9 9 9 10 11 10 10 9 9 8 7 7 8 9 9 8 8 9 9 9 7 6 4 4 4 5 5 5 5 4 3 3
9 10 10 9 10 8 7 9 7 7 8 8 8 8 8 8 8 8 9 9 9 11 11 10 9 9 8 7 7 7 9 9 8 9 9 9 9 8 7 5 3 5 5 5 3 2 2 2 2
8 10 11 9 12 8 9 7 6 7 8 8 8 8 8 8 8 7 8 9 9 10 11 11 10 9 8 8 7 8 9 8 8 9 8 8 8 8 7 5 4 5 4 3 3 3 2 2 3
11 11 11 11 10 11 10 7 4 6 8 8 8 8 8 8 8 7 7 8 9 10 11 11 10 9 9 7 6 6 6 6 8 8 7 8 7 7 7 5 4 4 3 2 2 3 3 2 2
9 11 11 10 8 9 10 9 7 5 6 7 7 7 7 7 7 7 7 7 8 9 10 11 10 9 8 6 6 5 4 4 4 6 8 7 7 7 6 4 4 3 2 1 2 2 2 2 3
14 11 9 5 6 6 7 8 7 7 7 7 8 8 7 8 8 7 7 7 7 8 9 10 10 9 8 6 5 4 5 4 4 5 7 7 6 6 5 4 3 3 2 2 2 2 1 2 2
15 12 8 5 3 4 4 6 9 7 7 7 7 7 8 9 9 8 7 7 7 8 8 9 10 10 9 8 7 6 5 4 3 3 3 5 6 6 5 4 3 3 2 2 2 2 2 1 2
11 10 8 7 5 4 6 5 8 9 9 9 8 7 7 8 8 8 8 8 8 7 7 8 9 9 9 9 8 9 6 5 4 4 3 4 6 5 5 5 4 3 2 2 1 2 1 1 1
5 5 7 8 7 4 7 5 5 9 10 11 9 8 7 7 9 9 9 8 7 7 7 7 8 8 8 8 8 8 6 5 5 5 5 4 4 5 5 4 4 3 2 2 2 2 1 1 1
3 3 3 4 4 6 9 7 5 8 11 10 9 8 7 7 7 7 8 8 6 6 7 7 8 8 8 8 8 8 8 7 7 6 5 4 3 3 4 4 3 2 2 2 1 1 0 0 1
6 5 4 5 6 7 9 8 5 4 5 8 9 8 7 7 7 7 7 8 8 8 8 7 8 8 8 8 8 7 7 8 8 7 6 5 4 3 3 3 2 2 2 1 1 1 0 0 1
8 7 5 5 6 4 7 8 3 2 3 6 6 6 6 6 6 6 6 6 7 9 8 8 8 7 8 8 7 6 7 5 5 5 5 5 4 3 3 3 2 2 2 1 1 0 0 0 0
5 7 4 2 2 3 5 4 2 4 4 5 6 6 5 5 6 6 6 5 6 7 7 7 7 7 7 7 6 6 6 6 5 5 5 4 3 3 3 3 2 2 1 1 1 1 1 0 1
4 3 2 3 3 4 5 7 6 7 6 5 6 5 5 4 4 5 5 5 5 6 6 6 5 6 6 6 6 6 6 5 5 5 5 5 4 3 3 3 2 2 1 1 1 1 1 0 1
4 4 3 3 3 2 3 2 2 6 6 6 5 5 5 4 4 4 4 4 5 5 5 5 5 5 6 6 6 6 6 5 5 5 5 5 4 4 4 3 3 3 2 2 1 1 1 1 2
4 5 4 4 3 2 1 1 3 4 5 6 6 5 5 5 4 4 4 5 5 5 4 5 5 5 5 6 6 5 5 5 5 5 4 4 4 4 3 3 3 3 2 2 2 1 1 1 2
Wind_Direction
265 253 245 244 232 230 235 241 247 200 145 29 23 18 33 29 46 111 148 121 120 126 128 129 127 125 121 118 114 111 108 106 105 102 100 98 96 93 90 87 87 86 83 81 79 77 75 72 69
262 244 236 234 233 229 232 228 231 192 101 71 45 18 45 74 78 107 125 119 123 124 127 129 127 125 122 119 116 113 111 108 106 104 102 100 97 94 91 88 87 85 84 82 81 78 75 72 68
259 247 231 222 228 229 240 206 175 115 95 114 130 30 41 79 97 111 123 126 123 121 124 126 127 125 122 120 116 115 112 110 109 106 103 102 99 95 92 89 87 85 84 81 79 77 73 70 67
234 216 242 238 236 237 252 198 120 122 124 161 153 124 85 47 83 117 127 128 124 121 120 125 126 125 122 120 117 115 113 110 108 106 103 101 99 96 93 90 88 86 85 82 78 75 71 68 65
237 223 223 235 242 246 248 195 108 144 160 182 185 135 89 61 94 118 128 126 123 121 120 126 124 124 122 121 119 116 114 110 106 103 101 100 99 95 92 90 88 86 84 81 78 75 70 65 61
223 231 225 227 235 238 236 189 160 192 187 181 176 148 99 115 115 126 125 122 121 121 122 126 124 122 121 120 119 117 115 110 107 104 101 98 97 95 93 91 90 88 84 81 77 74 70 64 58
231 233 239 239 235 230 222 177 183 203 209 188 163 138 127 139 124 128 123 120 120 120 124 127 126 122 120 120 118 115 113 110 107 104 101 99 97 94 93 92 91 88 85 81 76 72 69 63 57
248 257 242 242 243 234 205 185 180 203 214 192 149 142 144 142 132 128 119 117 118 123 127 129 129 126 122 118 117 116 114 112 109 106 102 99 96 93 92 90 89 87 83 80 77 73 69 63 53
253 243 236 232 240 235 185 187 160 159 203 339 58 80 125 133 135 130 124 122 125 127 130 131 129 127 124 123 121 117 115 114 112 110 109 104 100 96 91 90 90 87 81 77 77 74 69 61 47
214 231 235 247 259 251 202 186 163 180 188 180 103 101 121 134 143 144 145 145 141 138 133 131 125 125 128 128 126 124 122 122 118 117 113 102 97 97 95 93 92 87 82 75 73 74 63 44 35
211 234 245 260 302 334 285 201 183 202 203 189 154 139 140 147 154 156 156 152 143 136 128 125 124 126 126 125 128 124 122 121 117 114 111 103 99 100 97 94 91 89 83 70 61 59 44 42 35
226 241 251 260 287 305 280 230 219 229 220 154 146 148 151 159 167 166 163 153 140 133 129 125 124 121 119 122 123 120 116 111 107 110 109 105 98 95 96 92 93 86 73 61 54 54 42 40 38
230 240 246 257 257 263 273 251 237 236 200 121 135 146 158 166 170 166 161 153 143 139 136 132 128 125 120 119 123 118 113 109 107 104 102 100 95 92 88 82 78 72 64 50 46 49 42 38 36
223 236 243 239 232 230 238 247 236 224 167 147 152 156 163 168 168 164 160 155 149 145 141 136 133 128 124 119 115 111 111 111 108 102 102 103 100 94 89 79 70 63 52 45 48 49 43 31 33
229 231 238 229 216 210 221 241 227 207 186 174 170 165 165 168 167 170 166 157 149 146 141 139 136 129 125 118 115 114 114 112 106 105 105 102 101 95 91 83 70 62 54 47 51 49 47 34 25
215 221 223 216 205 201 205 233 217 199 192 189 181 172 167 168 171 170 163 156 150 145 144 141 140 133 126 119 115 113 113 111 108 108 106 103 104 100 90 81 66 61 54 46 42 44 35 21 12
204 213 214 215 200 190 206 234 211 192 190 188 179 175 169 167 170 168 163 157 152 148 145 142 138 136 128 121 115 111 111 108 109 108 105 104 102 101 95 87 76 64 57 44 28 33 31 15 3
197 207 211 213 196 195 208 224 208 195 192 189 181 176 174 171 171 167 163 155 150 147 144 143 140 139 134 125 116 107 105 105 106 104 105 105 102 100 93 86 81 73 63 44 39 39 25 16 341
222 216 216 214 192 192 206 216 216 211 198 192 186 180 178 173 164 157 151 143 143 145 145 146 146 144 141 139 135 127 126 118 108 106 112 108 105 102 95 85 77 71 71 64 60 51 30 9 350
241 237 226 207 171 189 206 224 224 214 211 200 193 186 180 168 158 154 147 143 145 149 151 150 151 150 148 145 138 132 130 125 120 109 112 117 113 109 104 92 84 73 72 56 48 52 40 6 9
234 230 227 203 162 209 208 233 225 215 213 207 200 190 174 166 162 160 153 153 152 153 156 159 157 155 151 144 135 129 114 110 114 126 125 118 122 116 110 103 92 78 85 82 52 54 60 4 340
229 226 226 200 170 209 195 222 218 205 208 207 199 187 173 166 162 164 164 162 163 162 158 158 156 153 153 150 150 148 148 151 155 151 143 130 127 124 117 108 99 84 74 84 62 49 34 51 330
231 232 219 207 204 220 216 221 230 196 202 202 191 183 176 167 165 169 168 165 162 156 155 157 153 152 153 155 155 154 152 149 138 135 140 140 129 127 121 112 98 86 80 78 64 54 28 33 347
226 225 218 215 214 225 212 210 231 203 199 188 183 175 173 165 161 161 158 153 152 147 148 153 156 155 155 156 159 161 155 150 144 146 152 153 146 131 124 119 106 98 88 85 78 80 59 359 343
188 167 168 187 206 222 193 204 228 201 178 173 170 170 166 160 155 149 149 155 157 155 155 157 159 156 156 158 164 167 160 157 157 157 159 154 154 153 155 124 109 101 99 98 88 83 161 265 306
199 193 186 186 194 197 185 207 205 165 109 120 121 129 143 149 146 143 146 154 157 158 159 161 161 160 160 162 166 163 160 160 160 157 155 157 161 162 148 139 140 130 127 116 101 94 207 43 340
194 215 245 288 235 187 196 182 159 123 108 118 125 127 131 134 141 143 143 148 150 152 159 163 161 159 161 161 160 159 160 158 157 154 149 149 142 145 143 152 150 152 145 139 120 155 219 177 295
204 206 212 214 200 205 199 191 183 164 159 145 138 132 122 113 119 126 136 140 142 145 147 150 155 157 155 154 163 159 157 155 153 151 151 149 144 141 153 158 159 159 154 147 135 177 209 251 296
187 198 211 214 243 201 193 192 54 138 141 138 121 108 106 108 114 119 122 125 127 132 142 149 150 144 148 152 152 151 153 150 148 149 150 146 144 150 158 167 171 174 175 166 170 195 194 248 288
213 203 194 192 228 237 205 217 18 84 103 104 104 96 88 90 96 101 102 110 121 129 133 139 141 142 146 148 147 148 145 145 147 149 145 142 147 152 162 163 173 184 186 182 179 194 228 249 273
Height
1492 1495 1497 1501 1503 1501 1495 1482 1472 1471 1472 1475 1476 1478 1481 1486 1490 1503 1504 1504 1505 1507 1510 1513 1516 1519 1521 1523 1525 1527 1528 1530 1531 1533 1534 1535 1536 1537 1538 1538 1539 1540 1540 1541 1541 1542 1542 1542 1542
1492 1495 1499 1500 1500 1500 1489 1477 1473 1472 1474 1477 1479 1481 1484 1490 1493 1498 1501 1504 1505 1507 1510 1513 1516 1519 1521 1524 1526 1528 1529 1531 1533 1534 1535 1536 1537 1538 1539 1540 1540 1541 1541 1542 1542 1543 1543 1543 1543
1491 1495 1498 1495 1493 1491 1481 1469 1470 1472 1475 1479 1482 1484 1487 1493 1495 1498 1501 1504 1506 1508 1511 1514 1517 1519 1522 1524 1526 1528 1530 1532 1534 1535 1536 1537 1538 1539 1540 1541 1542 1542 1543 1543 1544 1544 1544 1544 1544
1492 1495 1495 1492 1487 1478 1472 1469 1469 1473 1477 1480 1483 1486 1490 1495 1496 1498 1501 1504 1506 1509 1511 1514 1517 1520 1522 1525 1527 1529 1531 1533 1534 1536 1537 1538 1539 1540 1541 1542 1543 1543 1544 1544 1545 1545 1545 1545 1545
1491 1493 1492 1489 1483 1473 1469 1469 1471 1474 1477 1481 1483 1486 1492 1495 1496 1499 1502 1505 1506 1509 1512 1515 1518 1520 1523 1525 1527 1530 1531 1533 1535 1537 1538 1539 1540 1541 1542 1543 1544 1544 1545 1545 1545 1546 1546 1546 1546
1491 1488 1488 1487 1479 1471 1468 1469 1472 1474 1477 1480 1483 1486 1493 1495 1497 1500 1503 1505 1507 1509 1512 1515 1518 1521 1523 1526 1528 1530 1532 1534 1536 1537 1539 1540 1541 1542 1543 1544 1545 1545 1546 1546 1546 1546 1546 1546 1546
1488 1485 1483 1479 1475 1471 1467 1468 1471 1474 1477 1479 1481 1486 1492 1495 1497 1500 1503 1505 1508 1510 1512 1516 1519 1521 1524 1526 1529 1531 1533 1535 1536 1538 1539 1541 1542 1543 1544 1545 1545 1546 1546 1546 1547 1547 1547 1547 1547
1483 1482 1478 1476 1473 1469 1466 1468 1471 1474 1477 1479 1481 1485 1490 1493 1496 1500 1503 1506 1508 1510 1513 1516 1519 1521 1524 1526 1529 1531 1533 1535 1537 1539 1540 1541 1542 1543 1544 1545 1546 1546 1546 1547 1547 1547 1547 1547 1547
1482 1483 1477 1472 1470 1467 1466 1468 1472 1475 1477 1479 1481 1483 1486 1491 1495 1499 1502 1506 1509 1511 1513 1516 1519 1521 1524 1526 1529 1531 1533 1535 1537 1539 1540 1541 1543 1543 1544 1545 1546 1546 1547 1547 1547 1547 1547 1547 1547
1479 1479 1472 1466 1466 1466 1466 1469 1472 1475 1478 1480 1482 1484 1487 1490 1494 1498 1501 1504 1507 1511 1513 1516 1518 1521 1524 1526 1529 1531 1533 1535 1537 1539 1540 1542 1543 1544 1544 1545 1546 1547 1547 1547 1547 1547 1547 1547 1546
1473 1472 1468 1466 1466 1467 1468 1470 1472 1475 1477 1479 1481 1483 1487 1490 1494 1497 1501 1504 1507 1510 1513 1516 1518 1521 1524 1526 1529 1531 1533 1535 1537 1539 1540 1542 1543 1544 1545 1545 1546 1546 1547 1547 1547 1547 1547 1547 1546
1469 1468 1467 1466 1467 1468 1469 1471 1473 1474 1476 1477 1479 1481 1485 1489 1493 1497 1500 1503 1506 1509 1512 1515 1518 1521 1523 1526 1528 1531 1533 1535 1537 1539 1540 1541 1542 1543 1544 1545 1546 1546 1547 1547 1547 1547 1547 1546 1546
1467 1466 1466 1466 1468 1469 1470 1471 1473 1474 1475 1476 1479 1482 1485 1488 1492 1496 1500 1503 1505 1508 1511 1514 1517 1520 1523 1525 1528 1530 1533 1535 1537 1538 1540 1541 1542 1543 1544 1545 1545 1546 1546 1546 1546 1546 1546 1546 1545
1463 1465 1465 1466 1467 1469 1471 1471 1472 1473 1474 1476 1478 1481 1484 1487 1491 1495 1498 1501 1504 1507 1510 1513 1516 1519 1522 1525 1527 1529 1532 1534 1536 1538 1539 1540 1541 1542 1543 1544 1544 1545 1545 1546 1546 1545 1545 1544 1544
1462 1464 1464 1464 1465 1468 1471 1472 1470 1472 1473 1475 1478 1480 1483 1487 1490 1493 1496 1499 1502 1505 1508 1511 1515 1518 1521 1523 1526 1529 1531 1533 1535 1537 1539 1540 1541 1542 1542 1543 1544 1544 1545 1545 1545 1545 1544 1543 1543
1460 1464 1465 1461 1463 1465 1472 1472 1468 1469 1471 1474 1476 1479 1482 1485 1488 1491 1494 1497 1500 1503 1506 1510 1513 1516 1519 1522 1525 1527 1530 1532 1534 1536 1538 1539 1540 1541 1541 1542 1543 1543 1544 1544 1544 1543 1543 1542 1541
1459 1462 1462 1461 1459 1462 1467 1468 1465 1466 1469 1471 1474 1477 1480 1483 1486 1489 1492 1495 1498 1501 1504 1508 1511 1514 1517 1521 1524 1526 1529 1531 1533 1535 1537 1538 1539 1540 1541 1541 1542 1543 1543 1543 1543 1542 1541 1540 1539
1457 1457 1458 1459 1455 1458 1463 1465 1464 1464 1466 1469 1471 1474 1477 1480 1484 1487 1490 1493 1496 1499 1502 1506 1509 1513 1516 1519 1522 1524 1527 1530 1532 1534 1536 1537 1538 1539 1540 1540 1541 1541 1542 1541 1541 1541 1540 1539 1538
1449 1451 1453 1452 1451 1456 1461 1463 1463 1463 1464 1466 1469 1472 1475 1478 1482 1485 1488 1491 1494 1497 1500 1503 1506 1510 1513 1516 1519 1522 1525 1528 1530 1533 1534 1536 1537 1538 1539 1539 1540 1540 1540 1540 1540 1539 1538 1537 1536
1450 1450 1451 1450 1450 1455 1460 1462 1461 1461 1462 1464 1466 1469 1472 1476 1479 1482 1485 1488 1491 1494 1497 1501 1504 1507 1511 1514 1517 1521 1524 1526 1529 1531 1533 1534 1535 1536 1537 1538 1538 1538 1538 1538 1538 1537 1536 1536 1535
1449 1450 1451 1452 1453 1454 1460 1464 1460 1458 1460 1461 1463 1466 1469 1472 1475 1479 1482 1485 1488 1491 1494 1498 1501 1505 1508 1512 1515 1518 1521 1524 1526 1529 1531 1532 1534 1535 1536 1536 1537 1537 1537 1536 1536 1536 1535 1534 1534
1449 1446 1448 1450 1459 1462 1460 1469 1458 1455 1457 1457 1459 1462 1465 1469 1472 1476 1479 1482 1485 1488 1492 1495 1499 1502 1506 1509 1512 1515 1517 1520 1523 1526 1528 1530 1532 1533 1534 1534 1535 1535 1535 1535 1534 1534 1534 1533 1532
1447 1446 1447 1451 1456 1461 1458 1464 1457 1450 1453 1454 1455 1459 1462 1466 1469 1472 1475 1479 1482 1485 1489 1492 1496 1499 1503 1506 1509 1512 1515 1518 1521 1524 1526 1528 1529 1531 1531 1532 1532 1533 1533 1533 1532 1532 1532 1531 1531
1448 1449 1449 1451 1457 1465 1457 1460 1456 1448 1445 1448 1452 1456 1459 1463 1466 1469 1473 1476 1479 1482 1486 1489 1493 1496 1500 1503 1507 1510 1512 1515 1518 1520 1522 1525 1526 1528 1529 1530 1530 1531 1531 1531 1530 1530 1530 1529 1529
1449 1454 1460 1463 1464 1459 1447 1453 1451 1441 1440 1443 1448 1452 1456 1460 1463 1466 1470 1473 1476 1479 1482 1486 1490 1493 1497 1501 1504 1507 1510 1512 1515 1517 1519 1521 1523 1525 1526 1527 1528 1528 1528 1528 1528 1528 1527 1527 1526
1447 1449 1455 1457 1457 1451 1444 1449 1446 1440 1439 1442 1446 1450 1454 1458 1461 1464 1467 1470 1473 1476 1479 1483 1486 1490 1494 1498 1501 1504 1507 1510 1512 1514 1516 1518 1520 1522 1523 1524 1525 1525 1526 1526 1525 1525 1525 1524 1524
1448 1448 1446 1449 1447 1449 1447 1442 1444 1441 1442 1443 1447 1450 1453 1456 1459 1462 1465 1468 1470 1473 1476 1480 1483 1487 1491 1494 1498 1501 1504 1507 1509 1511 1513 1515 1517 1519 1520 1521 1522 1522 1522 1522 1522 1522 1522 1521 1521
1446 1447 1449 1453 1453 1449 1443 1441 1443 1443 1444 1445 1447 1450 1453 1456 1459 1461 1464 1466 1469 1471 1474 1478 1481 1484 1488 1491 1495 1498 1501 1504 1506 1508 1510 1512 1514 1515 1517 1518 1518 1519 1519 1519 1519 1519 1519 1518 1518
1447 1449 1449 1450 1448 1449 1448 1446 1439 1440 1441 1445 1448 1451 1453 1456 1458 1460 1463 1465 1466 1469 1472 1475 1478 1481 1485 1488 1491 1495 1498 1500 1503 1505 1507 1509 1510 1512 1513 1514 1515 1515 1516 1516 1516 1516 1515 1515 1514
1443 1445 1448 1452 1450 1445 1447 1453 1441 1441 1442 1445 1449 1452 1454 1456 1458 1460 1461 1463 1465 1467 1470 1472 1475 1478 1482 1485 1488 1491 1494 1497 1499 1502 1504 1505 1507 1509 1510 1511 1511 1512 1512 1512 1512 1512 1512 1511 1511